�������l�o���
Date,Time,MP-1(��Sv/h),MP-2(��Sv/h),MP-3(��Sv/h),MP-4(��Sv/h),MP-5(��Sv/h),MP-6(��Sv/h),MP-7(��Sv/h),MP-8(��Sv/h),����,����(m/s),���J
2023/05/24,00:00,0.533,0.774,0.475,0.938,0.678,0.318,0.557,0.532,�k�k��,5.9,�L
2023/05/24,00:10,0.531,0.774,0.475,0.941,0.677,0.317,0.557,0.531,�k�k��,6.4,�L
2023/05/24,00:20,0.531,0.773,0.474,0.941,0.680,0.315,0.558,0.531,�k�k��,6.6,�L
2023/05/24,00:30,0.531,0.775,0.477,0.941,0.679,0.316,0.556,0.533,�k,7.7,�L
2023/05/24,00:40,0.534,0.774,0.475,0.943,0.680,0.318,0.560,0.532,�k,7.4,�L
2023/05/24,00:50,0.532,0.776,0.476,0.942,0.680,0.318,0.558,0.531,�k,8.7,�L
2023/05/24,01:00,0.532,0.774,0.477,0.942,0.681,0.318,0.557,0.532,�k,9.0,�L
2023/05/24,01:10,0.532,0.773,0.475,0.943,0.678,0.319,0.558,0.532,�k,7.9,�L
2023/05/24,01:20,0.532,0.774,0.475,0.943,0.679,0.317,0.557,0.531,�k�k��,8.9,�L
2023/05/24,01:30,0.535,0.776,0.478,0.943,0.679,0.319,0.557,0.531,�k�k��,8.6,�L
2023/05/24,01:40,0.533,0.771,0.476,0.944,0.680,0.318,0.558,0.532,�k�k��,9.4,�L
2023/05/24,01:50,0.533,0.774,0.476,0.945,0.679,0.319,0.557,0.533,�k�k��,8.4,�L
2023/05/24,02:00,0.533,0.775,0.476,0.947,0.679,0.320,0.556,0.532,�k�k��,7.5,�L
2023/05/24,02:10,0.532,0.774,0.477,0.944,0.679,0.319,0.556,0.530,�k�k��,5.1,�L
2023/05/24,02:20,0.533,0.773,0.477,0.944,0.677,0.319,0.557,0.531,�k�k��,5.2,�L
2023/05/24,02:30,0.533,0.772,0.476,0.943,0.678,0.319,0.558,0.532,�k�k��,5.3,�L
2023/05/24,02:40,0.532,0.774,0.476,0.943,0.677,0.318,0.559,0.533,�k��,5.9,��
2023/05/24,02:50,0.530,0.773,0.477,0.944,0.677,0.319,0.559,0.531,�k��,6.8,��
2023/05/24,03:00,0.532,0.774,0.476,0.944,0.677,0.317,0.558,0.531,�k��,7.7,��
2023/05/24,03:10,0.533,0.775,0.475,0.942,0.679,0.319,0.558,0.530,�k�k��,6.8,�L
2023/05/24,03:20,0.531,0.773,0.474,0.944,0.679,0.318,0.557,0.531,�k�k��,8.0,�L
2023/05/24,03:30,0.530,0.772,0.475,0.943,0.679,0.317,0.558,0.530,�k�k��,6.9,�L
2023/05/24,03:40,0.531,0.774,0.475,0.943,0.679,0.319,0.558,0.531,�k�k��,7.6,�L
2023/05/24,03:50,0.531,0.773,0.475,0.941,0.677,0.320,0.557,0.531,�k�k��,7.4,�L
2023/05/24,04:00,0.531,0.773,0.476,0.940,0.676,0.318,0.557,0.531,�k�k��,6.9,�L
2023/05/24,04:10,0.531,0.772,0.475,0.940,0.677,0.318,0.555,0.533,�k�k��,7.1,��
2023/05/24,04:20,0.530,0.771,0.474,0.943,0.678,0.318,0.555,0.529,�k�k��,7.5,��
2023/05/24,04:30,0.531,0.771,0.474,0.941,0.677,0.318,0.556,0.530,�k�k��,7.3,��
2023/05/24,04:40,0.530,0.772,0.476,0.941,0.676,0.317,0.556,0.532,�k�k��,6.9,��
2023/05/24,04:50,0.530,0.772,0.475,0.939,0.677,0.319,0.556,0.531,�k��,8.3,��
2023/05/24,05:00,0.529,0.773,0.475,0.942,0.676,0.316,0.556,0.529,�k��,7.1,��
2023/05/24,05:10,0.530,0.772,0.474,0.940,0.678,0.317,0.556,0.531,�k��,7.2,�L
2023/05/24,05:20,0.530,0.773,0.473,0.943,0.677,0.318,0.555,0.530,�k��,5.7,�L
2023/05/24,05:30,0.529,0.772,0.474,0.940,0.676,0.316,0.557,0.531,�k�k��,7.1,�L
2023/05/24,05:40,0.530,0.772,0.474,0.941,0.676,0.317,0.557,0.530,�k�k��,8.7,�L
2023/05/24,05:50,0.532,0.772,0.474,0.940,0.676,0.316,0.558,0.530,�k�k��,8.9,�L
2023/05/24,06:00,0.531,0.773,0.473,0.943,0.678,0.318,0.557,0.531,�k�k��,7.3,��
2023/05/24,06:10,0.531,0.774,0.475,0.942,0.677,0.316,0.558,0.529,�k�k��,6.9,��
2023/05/24,06:20,0.531,0.774,0.475,0.943,0.678,0.315,0.557,0.531,�k�k��,7.2,��
2023/05/24,06:30,0.531,0.774,0.475,0.943,0.678,0.316,0.557,0.530,�k�k��,6.9,��
2023/05/24,06:40,0.531,0.772,0.474,0.944,0.678,0.316,0.558,0.532,�k�k��,7.5,��
2023/05/24,06:50,0.532,0.772,0.473,0.943,0.679,0.315,0.556,0.531,�k,7.1,��
2023/05/24,07:00,0.533,0.771,0.476,0.944,0.677,0.314,0.558,0.531,�k�k��,6.6,��
2023/05/24,07:10,0.532,0.772,0.475,0.941,0.679,0.315,0.557,0.532,�k�k��,8.1,��
2023/05/24,07:20,0.531,0.773,0.477,0.943,0.679,0.313,0.557,0.531,�k�k��,8.0,��
2023/05/24,07:30,0.531,0.771,0.476,0.942,0.679,0.314,0.557,0.530,�k,7.2,��
2023/05/24,07:40,0.532,0.772,0.475,0.946,0.678,0.313,0.558,0.528,�k,6.5,��
2023/05/24,07:50,0.532,0.774,0.476,0.945,0.677,0.315,0.558,0.528,�k,6.1,��
2023/05/24,08:00,0.532,0.773,0.477,0.946,0.679,0.314,0.558,0.527,�k,7.0,��
2023/05/24,08:10,0.530,0.773,0.476,0.944,0.679,0.314,0.557,0.529,�k,7.2,��
2023/05/24,08:20,0.530,0.773,0.477,0.944,0.680,0.315,0.555,0.528,�k,5.1,��
2023/05/24,08:30,0.532,0.771,0.475,0.945,0.678,0.314,0.555,0.529,�k�k��,6.7,��
2023/05/24,08:40,0.529,0.772,0.475,0.946,0.678,0.313,0.557,0.529,�k,5.5,��
2023/05/24,08:50,0.528,0.774,0.475,0.946,0.679,0.313,0.556,0.529,�k,7.9,��
2023/05/24,09:00,0.528,0.773,0.475,0.945,0.680,0.314,0.556,0.528,�k,7.2,�L
2023/05/24,09:10,0.526,0.773,0.475,0.945,0.677,0.315,0.558,0.528,�k,6.5,��
2023/05/24,09:20,0.528,0.774,0.475,0.948,0.679,0.316,0.558,0.530,�k,7.3,��
2023/05/24,09:30,0.528,0.775,0.476,0.944,0.680,0.316,0.558,0.530,�k�k��,8.9,��
2023/05/24,09:40,0.528,0.775,0.475,0.945,0.681,0.315,0.558,0.529,�k�k��,9.4,��
2023/05/24,09:50,0.530,0.776,0.478,0.945,0.682,0.314,0.558,0.531,�k�k��,9.3,��
2023/05/24,10:00,0.531,0.776,0.477,0.944,0.680,0.314,0.557,0.529,�k�k��,9.2,��
2023/05/24,10:10,0.532,0.777,0.476,0.947,0.681,0.316,0.558,0.530,�k,9.2,��
2023/05/24,10:20,0.533,0.776,0.478,0.947,0.681,0.315,0.558,0.531,�k,9.7,��
2023/05/24,10:30,0.533,0.779,0.477,0.949,0.683,0.317,0.560,0.531,�k�k��,8.3,��
2023/05/24,10:40,0.534,0.780,0.478,0.949,0.682,0.316,0.558,0.530,�k�k��,7.9,��
2023/05/24,10:50,0.533,0.778,0.477,0.947,0.682,0.318,0.558,0.531,�k,5.7,��
2023/05/24,11:00,0.534,0.780,0.478,0.947,0.682,0.316,0.558,0.531,�k�k��,6.7,��
2023/05/24,11:10,0.533,0.782,0.477,0.948,0.684,0.316,0.558,0.532,�k,6.1,��
2023/05/24,11:20,0.534,0.780,0.478,0.949,0.684,0.315,0.557,0.532,�k,5.4,��
2023/05/24,11:30,0.535,0.779,0.478,0.946,0.684,0.315,0.559,0.531,�k�k��,5.6,��
2023/05/24,11:40,0.533,0.781,0.478,0.948,0.685,0.316,0.558,0.530,�k�k��,6.6,��
2023/05/24,11:50,0.534,0.779,0.478,0.949,0.684,0.317,0.558,0.531,�k�k��,6.3,��
2023/05/24,12:00,0.535,0.782,0.479,0.948,0.683,0.316,0.560,0.530,�k�k��,6.7,��
2023/05/24,12:10,0.534,0.782,0.480,0.950,0.683,0.316,0.560,0.531,�k�k��,6.0,��
2023/05/24,12:20,0.536,0.781,0.480,0.948,0.684,0.316,0.559,0.532,�k�k��,5.7,��
2023/05/24,12:30,0.535,0.782,0.479,0.948,0.685,0.317,0.559,0.532,�k�k��,5.1,�L
2023/05/24,12:40,0.536,0.783,0.479,0.948,0.685,0.315,0.558,0.531,�k�k��,5.2,��
2023/05/24,12:50,0.536,0.782,0.479,0.951,0.684,0.316,0.560,0.531,�k�k��,5.3,��
2023/05/24,13:00,0.537,0.782,0.481,0.949,0.686,0.318,0.560,0.532,�k�k��,5.2,��
2023/05/24,13:10,0.537,0.782,0.481,0.950,0.686,0.317,0.558,0.530,�k�k��,4.7,��
2023/05/24,13:20,0.538,0.784,0.481,0.950,0.685,0.317,0.561,0.532,�k�k��,4.5,��
2023/05/24,13:30,0.537,0.784,0.479,0.950,0.688,0.316,0.562,0.533,�k�k��,4.8,��
2023/05/24,13:40,0.537,0.785,0.479,0.950,0.685,0.317,0.560,0.532,�k�k��,4.1,��
2023/05/24,13:50,0.536,0.784,0.481,0.948,0.685,0.316,0.562,0.532,�k�k��,3.8,��
2023/05/24,14:00,0.537,0.785,0.481,0.950,0.687,0.318,0.562,0.534,�k�k��,4.0,��
2023/05/24,14:10,0.536,0.785,0.481,0.948,0.689,0.317,0.562,0.533,�k��,4.8,��
2023/05/24,14:20,0.539,0.785,0.481,0.950,0.689,0.317,0.562,0.534,�k�k��,4.2,��
2023/05/24,14:30,0.536,0.786,0.481,0.948,0.688,0.318,0.561,0.532,�k�k��,4.5,��
2023/05/24,14:40,0.537,0.783,0.481,0.947,0.687,0.317,0.561,0.533,�k�k��,4.3,��
2023/05/24,14:50,0.539,0.786,0.481,0.947,0.690,0.317,0.560,0.533,�k�k��,4.1,��
2023/05/24,15:00,0.538,0.786,0.482,0.948,0.688,0.316,0.562,0.532,�k�k��,5.4,��
2023/05/24,15:10,0.538,0.786,0.481,0.950,0.689,0.318,0.562,0.532,�k�k��,5.1,��
2023/05/24,15:20,0.538,0.786,0.482,0.951,0.689,0.316,0.561,0.532,�k�k��,3.9,��
2023/05/24,15:30,0.538,0.785,0.481,0.950,0.689,0.316,0.563,0.531,�k�k��,4.6,��
2023/05/24,15:40,0.538,0.786,0.482,0.950,0.690,0.318,0.562,0.533,�k�k��,3.9,��
2023/05/24,15:50,0.539,0.787,0.482,0.950,0.689,0.318,0.563,0.533,�k,3.2,��
2023/05/24,16:00,0.538,0.784,0.481,0.950,0.688,0.317,0.562,0.533,�k�k��,2.3,��
2023/05/24,16:10,0.535,0.786,0.482,0.950,0.689,0.317,0.561,0.534,�k�k��,2.3,��
2023/05/24,16:20,0.538,0.787,0.481,0.954,0.689,0.318,0.560,0.532,�k,1.9,��
2023/05/24,16:30,0.538,0.785,0.481,0.952,0.687,0.316,0.562,0.533,�k,1.2,��
2023/05/24,16:40,0.539,0.789,0.481,0.953,0.687,0.318,0.562,0.532,-,CALM,��
2023/05/24,16:50,0.537,0.789,0.481,0.954,0.689,0.317,0.561,0.531,-,CALM,��
2023/05/24,17:00,0.538,0.790,0.482,0.955,0.688,0.319,0.562,0.532,�k��,1.2,��
2023/05/24,17:10,0.540,0.788,0.484,0.954,0.689,0.318,0.562,0.534,�k�k��,1.1,��
2023/05/24,17:20,0.538,0.791,0.483,0.956,0.690,0.319,0.563,0.533,�k,1.4,��
2023/05/24,17:30,0.538,0.791,0.483,0.956,0.690,0.318,0.563,0.534,�k��,1.5,��
2023/05/24,17:40,0.539,0.791,0.483,0.954,0.691,0.318,0.563,0.534,���k��,2.0,��
2023/05/24,17:50,0.538,0.789,0.483,0.953,0.690,0.319,0.561,0.534,���k��,3.9,��
2023/05/24,18:00,0.539,0.791,0.481,0.954,0.691,0.319,0.563,0.536,���k��,5.8,��
2023/05/24,18:10,0.539,0.791,0.483,0.953,0.693,0.319,0.562,0.534,���k��,6.1,��
2023/05/24,18:20,0.541,0.790,0.481,0.953,0.694,0.319,0.563,0.536,���k��,6.6,��
2023/05/24,18:30,0.543,0.792,0.483,0.953,0.692,0.316,0.563,0.536,���k��,6.0,��
2023/05/24,18:40,0.541,0.791,0.481,0.954,0.693,0.320,0.563,0.535,���k��,7.1,��
2023/05/24,18:50,0.542,0.792,0.480,0.955,0.694,0.320,0.563,0.537,�k��,7.3,��
2023/05/24,19:00,0.542,0.790,0.481,0.954,0.693,0.320,0.563,0.535,�k��,7.8,��
2023/05/24,19:10,0.541,0.791,0.482,0.957,0.694,0.319,0.563,0.535,���k��,6.8,��
2023/05/24,19:20,0.539,0.791,0.483,0.955,0.693,0.319,0.562,0.536,�k��,6.5,��
2023/05/24,19:30,0.540,0.790,0.484,0.954,0.693,0.320,0.562,0.535,���k��,6.6,��
2023/05/24,19:40,0.542,0.787,0.484,0.955,0.690,0.319,0.562,0.535,���k��,6.7,��
2023/05/24,19:50,0.541,0.790,0.483,0.957,0.692,0.319,0.563,0.534,���k��,6.4,��
2023/05/24,20:00,0.542,0.791,0.482,0.954,0.692,0.320,0.563,0.535,���k��,6.9,��
2023/05/24,20:10,0.540,0.790,0.483,0.956,0.693,0.319,0.564,0.536,���k��,7.0,��
2023/05/24,20:20,0.542,0.789,0.484,0.954,0.692,0.319,0.562,0.535,���k��,6.0,��
2023/05/24,20:30,0.541,0.792,0.482,0.954,0.692,0.318,0.562,0.534,���k��,6.3,��
2023/05/24,20:40,0.540,0.790,0.483,0.955,0.691,0.319,0.563,0.532,���k��,6.5,��
2023/05/24,20:50,0.540,0.790,0.483,0.956,0.693,0.318,0.565,0.535,���k��,6.5,��
2023/05/24,21:00,0.540,0.791,0.483,0.954,0.693,0.320,0.564,0.533,���k��,5.1,��
2023/05/24,21:10,0.539,0.788,0.484,0.956,0.691,0.319,0.564,0.535,���k��,4.4,��
2023/05/24,21:20,0.539,0.788,0.485,0.956,0.692,0.320,0.565,0.534,���k��,4.5,��
2023/05/24,21:30,0.539,0.790,0.483,0.955,0.690,0.319,0.565,0.534,��,6.2,��
2023/05/24,21:40,0.540,0.792,0.483,0.955,0.693,0.318,0.564,0.534,��,6.9,��
2023/05/24,21:50,0.543,0.789,0.483,0.957,0.691,0.319,0.565,0.534,��,6.7,��
2023/05/24,22:00,0.539,0.788,0.485,0.957,0.691,0.318,0.564,0.532,��,6.0,��
2023/05/24,22:10,0.541,0.791,0.484,0.956,0.693,0.319,0.565,0.535,��,6.7,��
2023/05/24,22:20,0.540,0.791,0.483,0.956,0.692,0.318,0.564,0.534,��,6.9,��
2023/05/24,22:30,0.542,0.791,0.483,0.956,0.693,0.320,0.564,0.536,��,7.6,��
2023/05/24,22:40,0.539,0.790,0.483,0.955,0.690,0.318,0.566,0.534,��,8.2,��
2023/05/24,22:50,0.539,0.789,0.483,0.955,0.691,0.319,0.567,0.534,��,8.9,��
2023/05/24,23:00,0.539,0.790,0.482,0.955,0.693,0.319,0.565,0.534,��,7.5,��
2023/05/24,23:10,0.540,0.789,0.483,0.956,0.692,0.317,0.564,0.533,��,8.1,��
2023/05/24,23:20,0.539,0.790,0.483,0.957,0.691,0.318,0.566,0.534,���k��,7.6,��
2023/05/24,23:30,0.540,0.790,0.484,0.959,0.691,0.318,0.566,0.535,��,7.7,��
2023/05/24,23:40,0.539,0.789,0.482,0.958,0.692,0.320,0.565,0.535,��,7.2,��
2023/05/24,23:50,0.540,0.790,0.482,0.956,0.692,0.318,0.564,0.534,���k��,7.2,��
